FW7769 Weather Reports


Display with metric or nautical units.
time (UTC)temp
F
wind
direction
speed
MPH
gust
MPH
rain 1hr
in
rain 24hr
in
rain mn
in
humidity
%
barometer
mb
20260502213042 64 0 0.0 0.0 0.00 0.00 0.00 88 1014.9
20260502211608 64 0 0.0 1.0 0.00 0.00 0.00 88 1015.0
20260502210046 64 0 0.0 0.0 0.00 0.00 0.00 88 1014.6
20260502204547 64 0 0.0 0.0 0.00 0.00 0.00 88 1014.8
20260502203039 64 0 0.0 0.0 0.00 0.00 0.00 88 1014.7
20260502201543 65 0 0.0 0.0 0.00 0.00 0.00 88 1014.4
20260502200049 65 0 0.0 0.0 0.00 0.00 0.00 88 1014.3
20260502194600 65 0 0.0 0.0 0.00 0.00 0.00 87 1013.9
20260502193039 65 0 0.0 0.0 0.00 0.00 0.00 85 1014.0
20260502191547 65 0 0.0 0.0 0.00 0.00 0.00 85 1014.1
20260502190041 66 0 0.0 1.0 0.00 0.00 0.00 85 1014.0
20260502184552 66 0 0.0 4.0 0.00 0.00 0.00 83 1014.0
20260502183052 67 63 0.0 2.0 0.00 0.00 0.00 83 1013.9
20260502181547 67 44 0.0 2.0 0.00 0.00 0.00 82 1014.0
20260502163050 70 113 0.0 2.0 0.00 0.00 0.00 77 1014.5
20260502161543 70 0 0.0 2.0 0.00 0.00 0.00 76 1014.8
20260502151543 71 0 0.0 1.0 0.00 0.00 0.00 72 1015.5
20260502123044 73 0 1.0 5.0 0.00 0.00 0.00 70 1016.6
20260502121539 74 0 0.0 8.0 0.00 0.00 0.00 69 1016.6
20260502114549 72 0 0.0 4.0 0.00 0.00 0.00 71 1017.2
20260502113041 72 86 0.0 2.0 0.00 0.00 0.00 73 1017.5
20260502111550 72 0 0.0 3.0 0.00 0.00 0.00 74 1017.4
20260502110040 72 0 0.0 3.0 0.00 0.00 0.00 73 1017.6
20260502104548 72 0 0.0 4.0 0.00 0.00 0.00 74 1017.7
20260502103048 72 0 0.0 3.0 0.00 0.00 0.00 73 1017.8
20260502101608 72 0 0.0 4.0 0.00 0.00 0.00 74 1017.8
20260502070054 66 0 0.0 0.0 0.00 0.00 0.00 85 1018.3
20260502064539 65 0 0.0 0.0 0.00 0.00 0.00 85 1018.5
20260502063050 65 0 0.0 0.0 0.00 0.00 0.00 87 1018.4
20260502061543 64 0 0.0 0.0 0.00 0.00 0.00 88 1018.4
20260502060040 64 0 0.0 0.0 0.00 0.00 0.00 89 1018.2
20260502054542 64 0 0.0 0.0 0.00 0.00 0.00 89 1018.1
20260502053048 64 0 0.0 0.0 0.00 0.00 0.00 89 1018.1
20260502051603 63 0 0.0 0.0 0.00 0.00 0.00 89 1018.1
20260502050042 63 0 0.0 0.0 0.00 0.00 0.00 89 1018.1
20260502044545 64 0 0.0 0.0 0.00 0.00 0.00 89 1018.0
20260502043039 63 0 0.0 0.0 0.00 0.00 0.00 89 1018.0
20260502041542 64 0 0.0 0.0 0.00 0.00 0.00 88 1018.0
20260502040051 64 0 0.0 0.0 0.00 0.00 0.00 89 1018.3
20260502034544 63 0 0.0 0.0 0.00 0.00 0.00 89 1018.1
20260502033043 64 0 0.0 0.0 0.00 0.00 0.00 88 1018.3
20260502031541 64 0 0.0 0.0 0.00 0.00 0.00 88 1018.3
20260502030040 64 0 0.0 0.0 0.00 0.00 0.00 89 1018.3
20260502024540 63 0 0.0 0.0 0.00 0.00 0.00 89 1018.5
20260502023055 64 0 0.0 0.0 0.00 0.00 0.00 88 1018.4
20260502021541 64 0 0.0 0.0 0.00 0.00 0.00 88 1018.3
20260502020053 64 0 0.0 0.0 0.00 0.00 0.00 88 1018.6
20260502014539 64 0 0.0 0.0 0.00 0.00 0.00 88 1018.7
20260502013054 64 0 0.0 0.0 0.00 0.00 0.00 88 1018.7
20260502011543 64 0 0.0 0.0 0.00 0.00 0.00 88 1018.8
20260502010039 64 0 0.0 0.0 0.00 0.00 0.00 88 1019.0
20260502004538 64 0 0.0 0.0 0.00 0.00 0.00 88 1019.1
20260502003037 64 0 0.0 0.0 0.00 0.00 0.00 88 1019.2
20260502001602 64 0 0.0 0.0 0.00 0.00 0.00 88 1019.7
20260502000042 64 0 0.0 0.0 0.00 0.00 0.00 88 1020.0
20260501234540 64 0 0.0 0.0 0.00 0.00 0.00 88 1020.1
20260501233054 64 0 0.0 0.0 0.00 0.00 0.00 89 1020.1
20260501231538 64 0 0.0 0.0 0.00 0.00 0.00 89 1020.1
20260501230042 64 0 0.0 0.0 0.00 0.00 0.00 89 1020.1
20260501224542 64 0 0.0 0.0 0.00 0.00 0.00 89 1020.1
20260501223049 64 0 0.0 0.0 0.00 0.00 0.00 89 1020.0
20260501221540 64 0 0.0 0.0 0.00 0.00 0.00 89 1020.0
20260501220110 64 0 0.0 0.0 0.00 0.00 0.00 88 1019.9
20260501214545 64 0 0.0 0.0 0.00 0.00 0.00 89 1019.9